Location: Devargunta
(16.7631°N, 80.9077°E)
Time: 16:59:43
(UTC+00:00)

USA 307 - Pass Details

Date: 19 January 2021
Orbit: 565 x 580 km, 54.0° (Epoch: 25 February)

Event Time Altitude Azimuth Distance (km) Brightness Sun altitude
Rises 23:28:32 0° 198° (SSW) 2,750 6.4 -23.7°
Reaches altitude 10° 23:30:54 10° 190° (S) 1,852 5.6 -23.2°
Maximum altitude 23:34:46 36° 123° (ESE) 903 4.4 -22.3°
Drops below altitude 10° 23:38:39 10° 56° (NE) 1,851 6.0 -21.4°
Sets 23:41:00 0° 48° (NE) 2,747 6.8 -20.8°
